Weather History for Stuart, FL

Change the Weather History Date:

Saturday, January 19, 2013

  Actual Average Record
Temperature  
Mean Temperature 70 °F -  
Max Temperature 71 °F 74 °F 87 °F (1987)
Min Temperature 68 °F 54 °F 30 °F (1958)
Cooling Degree Days 4    
Growing Degree Days 20 (Base 50)    
Moisture  
Dew Point 64 °F    
Average Humidity 85    
Maximum Humidity 94    
Minimum Humidity 68    
Precipitation  
Precipitation 0.12 in - - ()
Sea Level Pressure  
Sea Level Pressure 30.17 in    
Wind  
Wind Speed 8 mph (NE)    
Max Wind Speed 14 mph    
Max Gust Speed 21 mph    
Visibility 8 miles    
Events Rain    
Averages and records for this station are not official NWS values.
T = Trace of Precipitation, MM = Missing Value Source: NWS Daily Summary

Daily Weather History Graph

Daily Weather History Graph

Search for Another Location

Airport:

Trip Planner

Search our weather history database for the weather conditions in past years. The results will help you decide how hot, cold, wet, or windy it might be!

Date:

Astronomy

Jan. 19, 2013 Rise Set
Actual Time 7:11 AM EST 5:52 PM EST
Civil Twilight 6:46 AM EST 6:17 PM EST
Nautical Twilight 6:17 AM EST 6:45 PM EST
Astronomical Twilight 5:49 AM EST 7:13 PM EST
Moon 12:11 PM EST (1/19) 12:52 AM EST (1/19)
Length of Visible Light 11h 30m
Length of Day
10h 41m
First Quarter, 57% of the Moon is Illuminated
Jan 19
First Quarter
Jan 26
Full
Feb 3
Last Quarter
Feb 10
New
Feb 17
First Quarter

Hourly Weather History & Observations

Time (EST) Temp. Dew Point Humidity Pressure Visibility Wind Dir Wind Speed Gust Speed Precip Events Conditions
12:15 AM 68.0 °F 60.8 °F 78% 30.20 in 7.0 mi East 11.5 mph 19.6 mph N/A Rain Light Rain
12:35 AM 69.8 °F 60.8 °F 73% 30.20 in 10.0 mi ENE 13.8 mph - N/A   Overcast
12:55 AM 69.8 °F 60.8 °F 73% 30.20 in 10.0 mi East 10.4 mph - N/A   Mostly Cloudy
1:15 AM 69.8 °F 60.8 °F 73% 30.20 in 10.0 mi East 12.7 mph 18.4 mph N/A   Mostly Cloudy
1:35 AM 69.8 °F 60.8 °F 73% 30.19 in 10.0 mi East 13.8 mph - N/A   Overcast
1:55 AM 68.0 °F 59.0 °F 73% 30.19 in 10.0 mi East 9.2 mph - N/A   Scattered Clouds
2:15 AM 69.8 °F 59.0 °F 68% 30.18 in 10.0 mi East 10.4 mph - N/A   Scattered Clouds
2:35 AM 69.8 °F 59.0 °F 68% 30.18 in 10.0 mi East 8.1 mph - N/A   Mostly Cloudy
2:55 AM 69.8 °F 60.8 °F 73% 30.17 in 10.0 mi East 8.1 mph 20.7 mph N/A   Mostly Cloudy
3:15 AM 68.0 °F 62.6 °F 83% 30.18 in 7.0 mi East 8.1 mph - N/A Rain Light Rain
3:35 AM 68.0 °F 62.6 °F 83% 30.18 in 10.0 mi East 6.9 mph - N/A   Overcast
3:55 AM 68.0 °F 60.8 °F 78% 30.17 in 10.0 mi East 6.9 mph - N/A   Overcast
4:15 AM 68.0 °F 62.6 °F 83% 30.17 in 10.0 mi ENE 11.5 mph - N/A   Mostly Cloudy
4:35 AM 68.0 °F 62.6 °F 83% 30.17 in 10.0 mi East 9.2 mph - N/A   Clear
4:55 AM 68.0 °F 62.6 °F 83% 30.17 in 10.0 mi NE 12.7 mph - N/A   Clear
5:15 AM 68.0 °F 62.6 °F 83% 30.18 in 10.0 mi NE 9.2 mph - N/A   Mostly Cloudy
6:47 AM 69.8 °F 62.6 °F 78% 30.18 in 7.0 mi NE 10.4 mph - N/A   Mostly Cloudy
7:47 AM 69.8 °F 64.4 °F 83% 30.20 in 7.0 mi NE 9.2 mph - N/A   Mostly Cloudy
8:47 AM 71.6 °F 64.4 °F 78% 30.22 in 7.0 mi NE 8.1 mph - N/A   Mostly Cloudy
11:47 AM 71.6 °F 66.2 °F 83% 30.22 in 4.0 mi NE 5.8 mph - N/A Rain Light Rain
12:47 PM 69.8 °F 66.2 °F 88% 30.19 in 2.0 mi NE 5.8 mph - N/A Rain Rain
1:47 PM 68.0 °F 66.2 °F 94% 30.15 in 3.0 mi Calm Calm - N/A Rain Rain
2:47 PM 71.6 °F 66.2 °F 83% 30.15 in 4.0 mi Calm Calm - N/A Rain Light Rain
3:47 PM 68.0 °F 64.4 °F 88% 30.14 in 4.0 mi NNE 6.9 mph - N/A Rain Light Rain
4:47 PM 68.0 °F 66.2 °F 94% 30.15 in 3.0 mi NNE 6.9 mph - N/A Rain Light Rain
5:47 PM 68.0 °F 66.2 °F 94% 30.14 in 4.0 mi NE 6.9 mph - N/A Rain Light Rain
6:47 PM 68.0 °F 66.2 °F 94% 30.15 in 7.0 mi Calm Calm - N/A   Overcast
7:15 PM 68.0 °F 64.4 °F 88% 30.16 in 10.0 mi NNW 3.5 mph - N/A   Overcast
7:35 PM 68.0 °F 64.4 °F 88% 30.17 in 10.0 mi NNW 3.5 mph - N/A   Overcast
7:55 PM 68.0 °F 64.4 °F 88% 30.17 in 10.0 mi Calm Calm - N/A   Overcast
8:15 PM 68.0 °F 64.4 °F 88% 30.17 in 7.0 mi NW 3.5 mph - N/A   Overcast
8:35 PM 68.0 °F 66.2 °F 94% 30.17 in 7.0 mi Calm Calm - N/A   Overcast
8:55 PM 68.0 °F 66.2 °F 94% 30.17 in 10.0 mi NE 6.9 mph - N/A   Overcast
9:15 PM 68.0 °F 66.2 °F 94% 30.16 in 10.0 mi Calm Calm - N/A   Overcast
9:35 PM 68.0 °F 66.2 °F 94% 30.16 in 10.0 mi Calm Calm - N/A   Overcast
9:55 PM 68.0 °F 66.2 °F 94% 30.15 in 10.0 mi North 3.5 mph - N/A   Overcast
10:15 PM 68.0 °F 66.2 °F 94% 30.15 in 4.0 mi Calm Calm - 0.02 in   Heavy Drizzle
10:35 PM 68.0 °F 66.2 °F 94% 30.15 in 5.0 mi West 3.5 mph - 0.06 in Rain Rain
10:55 PM 68.0 °F 66.2 °F 94% 30.15 in 4.0 mi WNW 3.5 mph - 0.11 in   Heavy Drizzle
11:15 PM 68.0 °F 66.2 °F 94% 30.14 in 3.0 mi NNW 5.8 mph - 0.01 in Rain Rain
11:35 PM 68.0 °F 66.2 °F 94% 30.13 in 10.0 mi North 5.8 mph - 0.01 in   Overcast
11:55 PM 68.0 °F 66.2 °F 94% 30.13 in 10.0 mi NNE 4.6 mph - 0.01 in   Overcast